Starlink 11144

operational
NORAD ID: 59955 Int'l Des: 2024-107 Owner: SPXS Country: US Constellation: starlink
LEOCIRCULAR

Über Starlink 11144

Beschreibung wird geladen...

Live-Position

3D-Globus wird geladen...

Nächste Überflüge

Höhenverlauf

Altitude vs Time

uPlot chart will show altitude changes over time

Zweizeiliger Elementsatz

1 59955U 24107L 25308.54752887 -.00003308 00000-0 -22428-4 0 9999
2 59955 53.1555 147.9793 0001902 86.1154 274.0081 15.69726410 82559
Epoch: 4. Nov. 2025 • Age: 6 hours

Aktueller Status

Höhe 378.7 km
Geschwindigkeit 7.68 km/s
Subsatellitenpunkt -51.36°S, 69.07°E
Startdatum 5. Juni 2024
Alter 1.4 years
Typ internet

Technische Details

Klassifizierung Payload
Masse 960.00 kg
Trockenmasse 910.00 kg
Gesamtmasse 960.00 kg
Länge 0.30 m
Durchmesser 4.10 m
Spannweite 29.00 m
Form Box + pan
Hersteller SPXS
Bus-Typ Starlink V2MD
Phasenstatus In Orbit
Besitzer/Staat SPXS/US

Große Konstellationen

Loading constellations...